Weather Roundup
Issued by NWS

Home | Current Version | Previous Version | Graphics & Text | Print | Product List | Glossary Off
Versions: 1 2 3 4 5 6 7 8 9 10 11 12 13 14 15 16 17 18 19 20 21 22 23 24 25 26 27 28 29 30 31 32 33 34 35 36 37 38 39 40 41 42 43 44 45 46 47 48 49 50

000
NZUS93 KARX 271610
HRRWXR

CURRENT HOURLY OBSERVATIONS ACROSS
MUCH OF THE UPPER MISSISSIPPI VALLEY
NATIONAL WEATHER SERVICE LA CROSSE WI
1100 AM CDT THU APR 27 2017


...SOUTHEAST MINNESOTA...


CITY           SKY/WX    TMP DP  RH WIND       PRES   REMARKS
ROCHESTER      CLOUDY    36  33  89 W15       29.54R WCI  27
ROCHESTER/MAYO CLOUDY    36  32  84 W15G22    29.53S WCI  27
WINONA         CLOUDY    37  32  81 NW15G21   29.53R WCI  28
AUSTIN         CLOUDY    34  28  80 W12       29.57R WCI  25
ALBERT LEA     DRIZZLE   32  30  93 NW10G21   29.59R WCI  24
DODGE CENTER   CLOUDY    34  30  86 W14       29.55R WCI  24
PRESTON        CLOUDY    35  32  88 W16       29.54R FOG     WCI  25
OWATONNA       DRIZZLE   34  30  86 NW12      29.58R WCI  25
FARIBAULT      DRIZZLE   34  30  86 W12       29.58R WCI  25
$$

...ELSEWHERE IN MINNESOTA...


CITY           SKY/WX    TMP DP  RH WIND       PRES   REMARKS
MINNEAPOLIS    CLOUDY    34  26  72 NW13      29.57R WCI  25
INTNL FALLS    CLOUDY    24  15  68 N10       29.58F WCI  14
DULUTH         CLOUDY    25  19  78 N14G23    29.49S WCI  13
RED WING       CLOUDY    36  27  69 NW10      29.54S WCI  28
REDWOOD FALLS  CLOUDY    32  24  72 NW14G21   29.63R WCI  22
MANKATO        MIX PCPN  33  29  85 W12       29.61R WCI  24
WORTHINGTON    CLOUDY    32  24  72 NW17G23   29.66R WCI  21
FAIRMONT       CLOUDY    33  26  75 NW18      29.64R WCI  22
$$

...SOUTHWEST WISCONSIN...


CITY           SKY/WX    TMP DP  RH WIND       PRES   REMARKS
LA CROSSE      LGT RAIN  40  33  76 W10       29.52R WCI  33
PRAIRIE DU CHI CLOUDY    39  35  87 W10       29.56R WCI  32
BOSCOBEL       CLOUDY    40  35  83 W6        29.55R
LONE ROCK      CLOUDY    38  34  85 W14       29.54R WCI  30
PLATTEVILLE    CLOUDY    38  37  96 W16       29.55R WCI  30
FORT MC COY    CLOUDY    34  32  93 W8        29.52R WCI  27
CAMP DOUGLAS   CLOUDY    32  32 100 W7        29.49R WCI  26
MAUSTON-NEW LI LGT SNOW  33  32  95 W7G16     29.49R WCI  27
VIROQUA        CLOUDY    34  32  92 W6        29.51R WCI  29
WIS DELLS      LGT SNOW  33  32  97 W9        29.50R WCI  25
$$

...ELSEWHERE IN WISCONSIN...


CITY           SKY/WX    TMP DP  RH WIND       PRES   REMARKS
MILWAUKEE      CLOUDY    46  38  73 W21G33    29.46R
MADISON        FLURRIES  36  34  92 W10G21    29.51R WCI  28
GREEN BAY      LGT RAIN  42  41  96 W15       29.36R FOG
EAU CLAIRE     CLOUDY    34  28  79 NW13      29.50R WCI  25
BLACK RVR FLS  CLOUDY    34  33  93 NW8       29.49R WCI  28
MEDFORD        LGT SNOW  29  26  91 NW8       29.43R VSB 1   WCI  21
WAUSAU         LGT SNOW  32  31  96 NW14      29.40R VSB 3/4 WCI  22
WIS RAPIDS     LGT SNOW  32  31  96 NW13G18   29.47R VSB 3/4 WCI  22
MARSHFIELD     SNOW      30  28  92 NW13      29.44R VSB 1/2 WCI  20
RICE LAKE      CLOUDY    30  26  86 NW8       29.51S FOG     WCI  22
$$

...NORTHEAST IOWA...


CITY           SKY/WX    TMP DP  RH WIND       PRES   REMARKS
WATERLOO       CLOUDY    38  30  73 W13       29.61R WCI  30
DUBUQUE        CLOUDY    39  35  86 W15       29.57R WCI  31
DECORAH          N/A     37  32  81 W10G22    29.54R WCI  30
MASON CITY     CLOUDY    35  31  85 W18       29.63R WCI  24
CHARLES CITY   CLOUDY    37  32  81 W16G23    29.60R WCI  28
OELWEIN        CLOUDY    37  32  81 W21G26    29.60R WCI  27
$$

...ELSEWHERE IN IOWA...


CITY           SKY/WX    TMP DP  RH WIND       PRES   REMARKS
DES MOINES     CLOUDY    40  30  67 NW14      29.70R WCI  32
IOWA CITY      CLOUDY    40  38  93 W18       29.67R WCI  31
FORT DODGE     CLOUDY    34  27  75 NW13      29.68S WCI  25
MARSHALLTOWN   CLOUDY    36  29  75 W16G25    29.65R WCI  26
CEDAR RAPIDS   CLOUDY    36  35  96 W18       29.63R WCI  26
$$

...NORTHERN ILLINOIS...


CITY           SKY/WX    TMP DP  RH WIND       PRES   REMARKS
CHICAGO-OHARE  CLOUDY    47  39  74 SW21G29   29.53R
CHICAGO-MIDWAY CLOUDY    47  40  76 SW18G28   29.55R
MOLINE         CLOUDY    41  34  76 W14G25    29.64R
ROCKFORD       CLOUDY    42  37  82 W14       29.58R
PEORIA         CLOUDY    45  38  76 W14       29.67R
$$

NOTE: "FAIR" INDICATES FEW OR NO CLOUDS BELOW 12,000 FEET WITH NO
SIGNIFICANT WEATHER AND/OR OBSTRUCTIONS TO VISIBILITY. WIND
SPEEDS ARE IN MILES-PER-HOUR.




USA.gov is the U.S. government's official web portal to all federal, state and local government web resources and services.